Location: Noordwijk
(52.2400°N, 4.4500°E)
Time: 01:37:45
(UTC+00:00)

DIWATA 2B (PO-101) - Pass Details

Date: 02 December 2022
Orbit: 583 x 595 km, 98.0° (Epoch: 06 February)

Event Time Altitude Azimuth Distance (km) Brightness Sun altitude
Rises 16:49:04 0° 359° (N) 2,823 ? -11.0°
Reaches altitude 10° 16:52:43 10° 325° (NW) 1,918 ? -11.6°
Maximum altitude 16:53:59 11° 307° (NW) 1,835 ? -11.7°
Drops below altitude 10° 16:55:15 10° 289° (WNW) 1,915 ? -11.9°
Sets 16:58:53 0° 256° (WSW) 2,813 ? -12.4°
